Time,TemperatureF,DewpointF,PressureIn,WindDirection,WindDirectionDegrees,WindSpeedMPH,WindSpeedGustMPH,Humidity,HourlyPrecipIn,Conditions,Clouds,dailyrainin,SolarRadiationWatts/m^2,SoftwareType,DateUTC
2013-10-07 00:14:00,48.1,7.0,30.01,WSW,237,1.0,-999.0,19,-99.99,,,0.00,0,weatherlink.com 1.10,2013-10-07 07:14:00,
2013-10-07 00:29:00,47.5,7.0,30.01,WSW,237,0.0,-999.0,19,-99.99,,,0.00,0,weatherlink.com 1.10,2013-10-07 07:29:00,
2013-10-07 00:44:00,47.1,7.0,30.01,WSW,237,0.0,-999.0,19,-99.99,,,0.00,0,weatherlink.com 1.10,2013-10-07 07:44:00,
2013-10-07 00:59:00,46.6,7.0,30.00,WSW,237,0.0,-999.0,20,-99.99,,,0.00,0,weatherlink.com 1.10,2013-10-07 07:59:00,
2013-10-07 01:14:00,46.6,6.0,30.01,WSW,237,0.0,-999.0,19,-99.99,,,0.00,0,weatherlink.com 1.10,2013-10-07 08:14:00,
2013-10-07 01:29:00,46.8,6.0,30.01,WSW,237,0.0,-999.0,19,-99.99,,,0.00,0,weatherlink.com 1.10,2013-10-07 08:29:00,
2013-10-07 01:44:00,47.7,6.0,30.01,WSW,237,2.0,-999.0,18,-99.99,,,0.00,0,weatherlink.com 1.10,2013-10-07 08:44:00,
2013-10-07 01:59:00,48.2,6.0,30.01,WSW,238,0.0,-999.0,18,-99.99,,,0.00,0,weatherlink.com 1.10,2013-10-07 08:59:00,
2013-10-07 02:14:00,47.1,7.0,30.01,WSW,238,0.0,-999.0,19,-99.99,,,0.00,0,weatherlink.com 1.10,2013-10-07 09:14:00,
2013-10-07 02:29:00,45.2,6.0,30.00,WSW,238,0.0,-999.0,20,-99.99,,,0.00,0,weatherlink.com 1.10,2013-10-07 09:29:00,
2013-10-07 02:44:00,45.1,6.0,30.00,WSW,249,0.0,-999.0,20,-99.99,,,0.00,0,weatherlink.com 1.10,2013-10-07 09:44:00,
2013-10-07 02:59:00,45.0,8.0,30.00,WSW,249,0.0,-999.0,22,-99.99,,,0.00,0,weatherlink.com 1.10,2013-10-07 09:59:00,
2013-10-07 03:14:00,44.4,7.0,30.00,WSW,248,0.0,-999.0,21,-99.99,,,0.00,0,weatherlink.com 1.10,2013-10-07 10:14:00,
2013-10-07 03:29:00,44.2,6.0,30.00,WSW,248,0.0,-999.0,21,-99.99,,,0.00,0,weatherlink.com 1.10,2013-10-07 10:29:00,
2013-10-07 03:45:00,44.5,7.0,30.00,WSW,248,1.0,-999.0,21,-99.99,,,0.00,0,weatherlink.com 1.10,2013-10-07 10:45:00,
2013-10-07 04:00:00,45.1,6.0,29.99,WSW,248,0.0,-999.0,20,-99.99,,,0.00,0,weatherlink.com 1.10,2013-10-07 11:00:00,
2013-10-07 04:15:00,46.9,6.0,29.99,WSW,248,0.0,-999.0,19,-99.99,,,0.00,0,weatherlink.com 1.10,2013-10-07 11:15:00,
2013-10-07 04:30:00,47.2,7.0,29.99,WSW,248,0.0,-999.0,19,-99.99,,,0.00,0,weatherlink.com 1.10,2013-10-07 11:30:00,
2013-10-07 04:45:00,47.2,7.0,30.00,WSW,248,1.0,-999.0,19,-99.99,,,0.00,0,weatherlink.com 1.10,2013-10-07 11:45:00,
2013-10-07 05:01:00,47.3,8.0,29.99,WSW,248,0.0,-999.0,20,-99.99,,,0.00,0,weatherlink.com 1.10,2013-10-07 12:01:00,
2013-10-07 05:15:00,47.1,7.0,30.00,WSW,248,0.0,-999.0,19,-99.99,,,0.00,0,weatherlink.com 1.10,2013-10-07 12:15:00,
2013-10-07 05:30:00,47.6,7.0,30.00,WSW,248,0.0,-999.0,19,-99.99,,,0.00,0,weatherlink.com 1.10,2013-10-07 12:30:00,
2013-10-07 05:45:00,47.2,8.0,30.00,WSW,248,1.0,-999.0,20,-99.99,,,0.00,0,weatherlink.com 1.10,2013-10-07 12:45:00,
2013-10-07 06:00:00,46.4,6.0,30.00,WSW,248,2.0,-999.0,19,-99.99,,,0.00,0,weatherlink.com 1.10,2013-10-07 13:00:00,
2013-10-07 06:15:00,45.9,7.0,30.00,WSW,248,0.0,-999.0,20,-99.99,,,0.00,0,weatherlink.com 1.10,2013-10-07 13:15:00,
2013-10-07 06:30:00,45.1,6.0,30.00,WSW,248,1.0,-999.0,20,-99.99,,,0.00,0,weatherlink.com 1.10,2013-10-07 13:30:00,
2013-10-07 06:45:00,45.3,6.0,30.01,WSW,248,0.0,-999.0,20,-99.99,,,0.00,0,weatherlink.com 1.10,2013-10-07 13:45:00,
2013-10-07 07:00:00,45.3,7.0,30.01,WSW,248,1.0,-999.0,21,-99.99,,,0.00,5,weatherlink.com 1.10,2013-10-07 14:00:00,
2013-10-07 07:15:00,45.7,8.0,30.02,WSW,248,0.0,-999.0,21,-99.99,,,0.00,23,weatherlink.com 1.10,2013-10-07 14:15:00,
2013-10-07 07:30:00,46.0,9.0,30.03,WSW,248,0.0,-999.0,22,-99.99,,,0.00,49,weatherlink.com 1.10,2013-10-07 14:30:00,
2013-10-07 07:45:00,46.4,11.0,30.03,WSW,248,1.0,-999.0,24,-99.99,,,0.00,72,weatherlink.com 1.10,2013-10-07 14:45:00,
2013-10-07 08:00:00,47.3,13.0,30.03,WSW,248,0.0,-999.0,25,-99.99,,,0.00,97,weatherlink.com 1.10,2013-10-07 15:00:00,
2013-10-07 08:15:00,48.5,13.0,30.04,WSW,248,0.0,-999.0,24,-99.99,,,0.00,158,weatherlink.com 1.10,2013-10-07 15:15:00,
2013-10-07 08:30:00,51.1,14.0,30.03,WSW,248,0.0,-999.0,23,-99.99,,,0.00,125,weatherlink.com 1.10,2013-10-07 15:30:00,
2013-10-07 08:45:00,53.5,15.0,30.04,WSW,248,0.0,-999.0,22,-99.99,,,0.00,130,weatherlink.com 1.10,2013-10-07 15:45:00,
2013-10-07 09:00:00,54.7,15.0,30.03,SW,235,0.0,-999.0,21,-99.99,,,0.00,137,weatherlink.com 1.10,2013-10-07 16:00:00,
2013-10-07 09:15:00,55.6,12.0,30.03,WSW,238,0.0,-999.0,18,-99.99,,,0.00,260,weatherlink.com 1.10,2013-10-07 16:15:00,
2013-10-07 09:30:00,57.2,15.0,30.03,WSW,238,0.0,-999.0,19,-99.99,,,0.00,248,weatherlink.com 1.10,2013-10-07 16:30:00,
2013-10-07 09:45:00,58.9,14.0,30.03,WSW,238,1.0,-999.0,17,-99.99,,,0.00,223,weatherlink.com 1.10,2013-10-07 16:45:00,
2013-10-07 10:00:00,62.0,9.0,30.02,ESE,123,5.0,-999.0,12,-99.99,,,0.00,274,weatherlink.com 1.10,2013-10-07 17:00:00,
2013-10-07 10:15:00,65.0,9.0,30.02,SE,124,2.0,-999.0,11,-99.99,,,0.00,410,weatherlink.com 1.10,2013-10-07 17:15:00,
2013-10-07 10:31:00,67.6,7.0,30.02,ESE,117,4.0,-999.0,9,-99.99,,,0.00,445,weatherlink.com 1.10,2013-10-07 17:31:00,
2013-10-07 10:46:00,71.0,4.0,30.01,East,88,4.0,-999.0,7,-99.99,,,0.00,840,weatherlink.com 1.10,2013-10-07 17:46:00,
2013-10-07 11:01:00,73.1,2.0,30.00,ENE,75,6.0,-999.0,6,-99.99,,,0.00,341,weatherlink.com 1.10,2013-10-07 18:01:00,
2013-10-07 11:16:00,72.8,2.0,30.00,East,90,6.0,-999.0,6,-99.99,,,0.00,258,weatherlink.com 1.10,2013-10-07 18:16:00,
2013-10-07 11:31:00,72.8,2.0,30.00,ENE,77,6.0,-999.0,6,-99.99,,,0.00,353,weatherlink.com 1.10,2013-10-07 18:31:00,
2013-10-07 11:46:00,73.4,2.0,29.99,NE,44,4.0,-999.0,6,-99.99,,,0.00,812,weatherlink.com 1.10,2013-10-07 18:46:00,
2013-10-07 12:01:00,73.8,-6.0,29.99,ENE,65,3.0,-999.0,4,-99.99,,,0.00,258,weatherlink.com 1.10,2013-10-07 19:01:00,
2013-10-07 12:16:00,74.3,-6.0,29.98,NW,318,0.0,-999.0,4,-99.99,,,0.00,193,weatherlink.com 1.10,2013-10-07 19:16:00,
2013-10-07 12:31:00,76.1,-11.0,29.98,NNW,342,0.0,-999.0,3,-99.99,,,0.00,735,weatherlink.com 1.10,2013-10-07 19:31:00,
2013-10-07 12:47:00,77.6,-10.0,29.97,WSW,257,5.0,-999.0,3,-99.99,,,0.00,568,weatherlink.com 1.10,2013-10-07 19:47:00,
2013-10-07 13:01:00,78.5,-9.0,29.96,North,349,3.0,-999.0,3,-99.99,,,0.00,817,weatherlink.com 1.10,2013-10-07 20:01:00,
2013-10-07 13:16:00,77.7,-10.0,29.95,NE,46,7.0,-999.0,3,-99.99,,,0.00,171,weatherlink.com 1.10,2013-10-07 20:16:00,
2013-10-07 13:31:00,76.4,-5.0,29.95,North,350,9.0,-999.0,4,-99.99,,,0.00,274,weatherlink.com 1.10,2013-10-07 20:31:00,
2013-10-07 13:47:00,76.2,-5.0,29.94,North,355,5.0,-999.0,4,-99.99,,,0.00,891,weatherlink.com 1.10,2013-10-07 20:47:00,
2013-10-07 14:02:00,77.5,-10.0,29.93,NNW,333,4.0,-999.0,3,-99.99,,,0.00,680,weatherlink.com 1.10,2013-10-07 21:02:00,
2013-10-07 14:17:00,78.0,-3.0,29.93,North,355,8.0,-999.0,4,-99.99,,,0.00,640,weatherlink.com 1.10,2013-10-07 21:17:00,
2013-10-07 14:32:00,77.4,-4.0,29.93,North,360,9.0,-999.0,4,-99.99,,,0.00,606,weatherlink.com 1.10,2013-10-07 21:32:00,
2013-10-07 14:47:00,78.1,-3.0,29.92,NNW,329,10.0,-999.0,4,-99.99,,,0.00,577,weatherlink.com 1.10,2013-10-07 21:47:00,
2013-10-07 15:02:00,77.2,1.0,29.92,NNW,336,11.0,-999.0,5,-99.99,,,0.00,547,weatherlink.com 1.10,2013-10-07 22:02:00,
2013-10-07 15:17:00,76.4,4.0,29.92,NNW,348,8.0,-999.0,6,-99.99,,,0.00,508,weatherlink.com 1.10,2013-10-07 22:17:00,
2013-10-07 15:32:00,75.6,7.0,29.92,NNW,334,13.0,-999.0,7,-99.99,,,0.00,471,weatherlink.com 1.10,2013-10-07 22:32:00,
2013-10-07 15:47:00,74.9,7.0,29.92,North,355,11.0,-999.0,7,-99.99,,,0.00,429,weatherlink.com 1.10,2013-10-07 22:47:00,
2013-10-07 16:02:00,74.5,9.0,29.92,NNW,338,5.0,-999.0,8,-99.99,,,0.00,385,weatherlink.com 1.10,2013-10-07 23:02:00,
2013-10-07 16:17:00,74.4,9.0,29.92,NNW,346,7.0,-999.0,8,-99.99,,,0.00,346,weatherlink.com 1.10,2013-10-07 23:17:00,
2013-10-07 16:32:00,74.1,9.0,29.91,NW,322,10.0,-999.0,8,-99.99,,,0.00,301,weatherlink.com 1.10,2013-10-07 23:32:00,
2013-10-07 16:47:00,73.7,9.0,29.91,NNW,332,10.0,-999.0,8,-99.99,,,0.00,255,weatherlink.com 1.10,2013-10-07 23:47:00,
2013-10-07 17:02:00,72.9,8.0,29.91,NNW,342,9.0,-999.0,8,-99.99,,,0.00,211,weatherlink.com 1.10,2013-10-08 00:02:00,
2013-10-07 17:18:00,72.4,10.0,29.91,NNW,331,7.0,-999.0,9,-99.99,,,0.00,165,weatherlink.com 1.10,2013-10-08 00:18:00,
2013-10-07 17:33:00,71.6,10.0,29.91,NNW,330,4.0,-999.0,9,-99.99,,,0.00,114,weatherlink.com 1.10,2013-10-08 00:33:00,
2013-10-07 17:48:00,70.6,9.0,29.91,NW,324,8.0,-999.0,9,-99.99,,,0.00,67,weatherlink.com 1.10,2013-10-08 00:48:00,
2013-10-07 18:03:00,69.6,11.0,29.91,NW,325,6.0,-999.0,10,-99.99,,,0.00,30,weatherlink.com 1.10,2013-10-08 01:03:00,
2013-10-07 18:18:00,68.2,14.0,29.92,NNW,329,2.0,-999.0,12,-99.99,,,0.00,9,weatherlink.com 1.10,2013-10-08 01:18:00,
2013-10-07 18:33:00,66.8,14.0,29.91,NNW,329,2.0,-999.0,13,-99.99,,,0.00,0,weatherlink.com 1.10,2013-10-08 01:33:00,
2013-10-07 18:48:00,65.3,16.0,29.92,NNW,328,3.0,-999.0,15,-99.99,,,0.00,0,weatherlink.com 1.10,2013-10-08 01:48:00,
2013-10-07 19:03:00,63.8,15.0,29.92,NW,318,4.0,-999.0,15,-99.99,,,0.00,0,weatherlink.com 1.10,2013-10-08 02:03:00,
2013-10-07 19:18:00,61.5,16.0,29.92,WSW,238,6.0,-999.0,17,-99.99,,,0.00,0,weatherlink.com 1.10,2013-10-08 02:18:00,
2013-10-07 19:33:00,60.9,16.0,29.92,WSW,248,6.0,-999.0,17,-99.99,,,0.00,0,weatherlink.com 1.10,2013-10-08 02:33:00,
2013-10-07 19:48:00,60.0,15.0,29.92,WSW,246,6.0,-999.0,17,-99.99,,,0.00,0,weatherlink.com 1.10,2013-10-08 02:48:00,
2013-10-07 20:03:00,59.4,17.0,29.92,WSW,239,8.0,-999.0,19,-99.99,,,0.00,0,weatherlink.com 1.10,2013-10-08 03:03:00,
2013-10-07 20:18:00,59.2,18.0,29.92,WSW,252,6.0,-999.0,20,-99.99,,,0.00,0,weatherlink.com 1.10,2013-10-08 03:18:00,
2013-10-07 20:34:00,59.0,17.0,29.93,West,267,6.0,-999.0,19,-99.99,,,0.00,0,weatherlink.com 1.10,2013-10-08 03:34:00,
2013-10-07 20:49:00,58.3,17.0,29.93,WSW,256,5.0,-999.0,20,-99.99,,,0.00,0,weatherlink.com 1.10,2013-10-08 03:49:00,
2013-10-07 21:04:00,58.0,18.0,29.93,NNW,328,7.0,-999.0,21,-99.99,,,0.00,0,weatherlink.com 1.10,2013-10-08 04:04:00,
2013-10-07 21:19:00,59.6,20.0,29.93,NW,313,6.0,-999.0,22,-99.99,,,0.00,0,weatherlink.com 1.10,2013-10-08 04:19:00,
2013-10-07 21:34:00,59.0,20.0,29.93,NNW,327,5.0,-999.0,22,-99.99,,,0.00,0,weatherlink.com 1.10,2013-10-08 04:34:00,
2013-10-07 21:49:00,58.2,19.0,29.93,NW,319,2.0,-999.0,22,-99.99,,,0.00,0,weatherlink.com 1.10,2013-10-08 04:49:00,
2013-10-07 22:04:00,56.9,19.0,29.93,NW,309,2.0,-999.0,23,-99.99,,,0.00,0,weatherlink.com 1.10,2013-10-08 05:04:00,
2013-10-07 22:19:00,55.9,21.0,29.93,WNW,292,5.0,-999.0,26,-99.99,,,0.00,0,weatherlink.com 1.10,2013-10-08 05:19:00,
2013-10-07 22:34:00,55.8,22.0,29.92,WNW,284,3.0,-999.0,27,-99.99,,,0.00,0,weatherlink.com 1.10,2013-10-08 05:34:00,
2013-10-07 22:49:00,55.1,21.0,29.92,WNW,284,2.0,-999.0,26,-99.99,,,0.00,0,weatherlink.com 1.10,2013-10-08 05:49:00,
2013-10-07 23:04:00,54.4,21.0,29.92,WNW,290,3.0,-999.0,27,-99.99,,,0.00,0,weatherlink.com 1.10,2013-10-08 06:04:00,
2013-10-07 23:19:00,54.1,21.0,29.91,WNW,290,4.0,-999.0,28,-99.99,,,0.00,0,weatherlink.com 1.10,2013-10-08 06:19:00,
2013-10-07 23:34:00,56.7,21.0,29.91,WSW,248,5.0,-999.0,25,-99.99,,,0.00,0,weatherlink.com 1.10,2013-10-08 06:34:00,
2013-10-07 23:49:00,57.1,20.0,29.91,NW,305,6.0,-999.0,24,-99.99,,,0.00,0,weatherlink.com 1.10,2013-10-08 06:49:00,